Wind_Speed
15 15 16 17 17 17 17 17 18 19 21 21 22 21 21 22 22 22 23 24 24 23 24 25 26 26 26 26 26 26 26 27 27 27 27 28 29 30 30 30 30 30 30 29
14 15 16 17 17 16 16 16 17 17 18 19 19 20 20 19 20 20 21 22 23 23 23 24 25 25 25 25 26 26 27 27 27 27 28 29 30 29 30 31 31 30 29 29
14 15 17 17 17 16 15 15 15 15 16 17 17 17 18 18 18 18 19 19 20 21 21 22 24 24 24 25 25 26 26 27 26 27 29 30 30 30 30 31 31 30 29 29
15 16 16 16 16 15 14 14 15 15 15 15 16 16 16 16 16 16 18 18 19 20 21 22 22 23 24 24 25 26 26 26 27 27 28 28 29 30 31 31 31 30 30 30
16 16 16 15 15 14 14 15 15 15 15 15 16 16 15 16 16 17 18 18 18 19 20 21 22 23 24 24 25 25 26 27 27 27 28 28 29 30 30 31 31 31 30 30
17 16 16 15 15 14 14 15 15 15 16 16 15 16 15 15 15 16 18 18 19 19 20 21 22 23 24 24 25 25 26 27 28 28 28 28 28 29 29 30 30 30 30 30
17 16 15 15 15 14 14 14 14 15 15 15 15 15 15 14 15 15 17 17 18 19 20 21 21 22 23 24 25 26 26 27 28 28 28 28 28 29 30 30 30 29 30 30
17 16 15 14 13 13 14 14 14 14 14 14 14 14 14 15 15 16 17 17 19 20 21 21 22 22 23 24 25 26 26 26 27 27 28 28 28 28 28 28 29 29 30 30
15 15 14 14 14 14 13 13 13 14 14 14 14 14 15 16 16 18 18 18 19 20 20 21 22 23 24 25 25 25 26 27 27 27 27 28 28 27 27 27 28 28 29 29
14 14 14 14 13 13 13 13 13 13 14 14 14 14 14 14 15 16 17 18 19 20 22 22 22 23 24 25 26 26 26 27 27 27 27 27 27 27 27 27 27 27 28 29
15 15 14 14 13 12 12 12 13 14 14 14 14 13 14 15 16 17 19 20 21 21 22 23 24 24 25 27 27 27 27 27 27 27 27 27 28 28 28 27 26 27 27 27
15 15 14 14 13 13 13 12 12 13 14 14 15 14 15 16 17 19 20 22 23 23 24 25 25 26 26 27 27 27 27 27 27 27 28 28 28 28 27 27 26 26 26 26
14 14 14 14 14 13 13 12 13 13 14 15 16 16 16 17 19 20 22 23 23 24 25 26 26 27 28 28 28 28 27 28 28 28 27 27 27 27 26 26 25 25 25 26
13 13 13 13 13 12 12 12 14 14 16 16 17 17 18 19 21 22 23 24 24 26 27 28 28 28 29 29 29 29 29 28 28 28 27 27 26 25 25 24 24 24 25 25
14 13 12 12 11 11 11 12 13 15 16 17 18 19 20 21 23 24 24 25 26 27 28 29 29 29 29 29 29 29 28 28 27 27 26 25 24 24 24 23 24 23 23 23
14 13 12 11 11 11 12 12 13 15 16 18 19 20 21 22 22 24 25 26 27 27 28 29 29 29 28 28 27 27 27 26 26 25 24 23 22 22 21 21 22 22 21 21
13 13 13 13 12 12 12 12 13 15 16 18 19 20 20 21 23 24 25 26 27 27 28 28 27 27 26 26 25 24 25 24 23 22 21 20 20 19 19 19 19 19 18 18
13 13 13 12 11 11 11 12 13 14 15 17 19 20 21 22 23 24 26 26 26 26 26 25 24 24 23 23 22 23 22 20 19 18 17 17 16 16 16 16 15 15 15 16
13 13 13 12 11 10 10 12 13 14 14 16 18 20 21 22 23 25 25 25 25 24 23 23 22 21 20 20 19 18 17 17 16 15 14 14 13 13 13 13 13 13 13 13
13 13 12 12 11 11 10 11 12 14 15 17 19 20 22 23 23 24 24 23 23 22 21 20 19 18 17 17 16 15 14 14 13 13 12 11 10 11 11 10 11 11 10 11
13 13 12 11 11 11 10 11 12 14 16 17 19 21 21 22 22 22 22 22 21 20 19 18 16 15 15 15 14 13 13 12 11 10 10 10 9 8 8 8 8 8 9 9
12 12 12 11 11 10 10 11 13 15 16 18 19 20 21 21 21 21 21 20 19 17 16 15 14 13 13 12 11 11 10 9 8 8 7 8 7 7 7 6 6 6 7 7
12 11 10 10 10 10 11 12 13 15 17 18 19 20 20 20 20 20 19 18 16 15 13 12 11 11 10 10 9 8 8 7 6 6 6 6 7 6 5 5 4 4 5 5
10 10 10 9 10 11 12 12 12 14 16 17 18 19 19 19 18 17 16 15 13 12 12 10 10 9 8 7 7 6 6 6 5 5 5 6 6 5 4 3 3 3 3 4
9 9 9 8 9 10 10 11 11 13 15 16 17 18 18 17 17 16 14 12 12 11 10 9 9 8 7 6 6 6 6 6 5 5 5 6 6 5 5 5 5 4 4 3
9 9 9 8 7 8 9 10 11 12 14 15 16 17 17 16 15 14 12 11 11 10 10 9 8 7 7 7 6 7 7 7 7 7 7 8 8 8 7 7 7 7 7 6
Wind_Direction
221 218 216 217 217 220 223 227 230 235 239 243 245 248 250 253 259 265 269 271 272 272 274 275 276 277 277 277 277 276 276 276 274 274 273 272 273 272 270 271 272 269 265 265
214 212 213 213 214 217 222 225 228 235 240 244 247 251 254 259 263 269 271 273 273 273 274 275 276 278 278 277 276 275 273 274 273 274 274 274 274 275 274 272 271 272 268 263
210 209 210 213 216 219 223 228 231 236 242 250 254 256 258 263 268 271 272 275 278 277 277 277 278 279 281 282 280 277 277 276 275 274 276 276 274 274 274 273 272 271 269 266
207 209 210 214 218 222 226 230 233 236 243 251 257 259 262 267 270 271 273 276 278 279 278 278 279 280 281 282 281 279 279 278 278 278 278 276 273 274 274 272 270 268 268 267
208 210 211 216 221 226 226 230 233 238 246 255 262 265 266 267 272 275 278 280 283 287 284 282 282 282 282 283 283 282 281 280 279 278 278 276 274 274 273 271 269 269 269 267
209 213 214 217 223 226 225 231 237 243 251 258 265 269 270 273 277 279 283 282 284 288 289 288 286 285 284 284 285 285 285 283 281 279 278 276 275 275 274 273 272 269 268 268
209 215 217 220 223 228 231 237 245 250 255 261 267 272 277 281 282 283 285 285 287 291 292 291 288 287 286 287 289 288 288 286 284 282 280 277 276 275 275 275 274 271 271 270
209 211 217 221 228 235 238 244 251 259 263 265 268 273 282 285 286 287 289 288 291 292 293 293 291 289 290 290 291 290 289 288 287 284 282 280 279 278 277 276 273 271 271 269
209 212 220 227 233 240 246 249 256 264 268 270 272 277 283 287 287 290 292 292 292 292 293 294 292 292 292 291 292 291 288 287 287 286 283 281 281 279 278 276 274 271 270 269
211 216 221 228 236 244 249 254 259 267 274 274 274 280 287 289 291 294 296 296 295 295 294 294 294 293 293 292 292 291 288 286 286 285 285 283 281 280 279 277 275 273 271 270
216 221 221 229 237 246 249 254 259 266 273 281 282 288 293 295 296 297 298 299 299 298 296 295 294 293 293 294 293 291 289 288 287 285 283 282 280 280 279 276 274 273 271 269
222 226 226 230 237 244 250 256 262 270 278 285 289 296 298 298 299 300 300 300 299 299 298 296 296 294 294 294 292 291 290 289 287 285 283 282 281 280 277 275 274 273 271 269
226 231 234 235 241 249 253 258 267 276 282 288 292 298 301 301 302 302 302 301 300 300 299 299 299 297 295 294 292 291 291 289 287 284 282 281 280 279 276 274 272 270 269 268
232 237 241 245 248 253 258 264 271 279 285 289 295 299 301 303 304 303 303 302 302 301 301 300 299 298 297 295 294 292 290 288 287 285 282 280 279 278 276 274 272 271 270 268
237 243 242 245 247 253 260 267 274 280 285 292 298 301 302 302 303 304 303 303 302 302 302 301 300 300 299 296 294 292 290 288 286 285 283 280 279 278 276 273 271 271 271 269
237 239 242 245 252 256 262 271 279 283 287 292 296 300 301 301 303 304 304 304 304 303 302 302 301 300 299 297 295 293 289 288 287 286 284 283 280 278 276 274 272 270 270 268
235 242 247 249 254 259 260 273 284 288 291 295 299 302 303 304 305 305 305 305 305 304 303 303 302 301 299 297 295 293 292 290 289 287 284 282 280 277 275 274 273 271 269 268
238 245 249 251 254 260 269 277 286 292 295 299 300 302 304 306 305 306 307 307 306 307 307 305 304 303 301 300 297 295 293 294 294 292 288 284 281 277 276 274 273 272 272 273
238 245 250 255 255 264 274 281 288 296 302 304 304 305 306 307 307 308 309 309 308 309 309 307 306 305 304 302 300 298 299 298 297 297 294 289 282 279 279 277 274 273 273 272
240 242 246 253 261 266 277 286 294 298 302 305 307 309 310 310 310 311 311 311 311 311 310 308 307 305 304 304 304 304 305 304 303 301 296 294 289 286 285 280 274 270 271 274
238 241 247 254 265 275 282 289 296 300 305 308 310 313 314 313 313 314 314 314 314 313 312 311 309 308 307 308 308 309 310 309 308 306 301 300 299 298 290 283 278 273 273 277
239 243 249 258 266 275 283 291 298 303 306 310 314 316 317 317 316 318 319 319 319 317 316 316 315 315 315 314 313 314 315 315 316 316 312 313 313 309 302 294 288 283 280 281
236 243 252 260 268 277 286 294 301 305 310 315 319 320 320 320 321 322 323 322 322 321 321 323 325 324 325 324 322 325 329 330 329 331 333 332 330 326 319 313 300 292 287 283
237 243 252 261 268 278 287 294 304 311 315 318 322 324 325 325 326 328 330 331 333 335 334 335 339 338 338 341 346 346 346 346 345 348 348 349 350 353 360 5 0 340 319 303
238 246 253 259 270 281 289 297 304 313 318 321 325 329 332 332 333 336 339 341 343 346 348 351 354 358 4 10 14 17 12 15 20 20 22 21 24 38 42 42 43 38 33 30
235 243 248 254 271 284 291 299 308 317 323 328 331 335 337 338 339 343 345 348 352 357 1 5 10 19 27 30 30 32 37 40 42 47 48 46 51 58 59 59 57 54 53 53
Height
5800 5803 5805 5807 5809 5812 5814 5817 5819 5821 5822 5824 5825 5827 5828 5828 5829 5829 5829 5829 5829 5829 5829 5829 5829 5829 5829 5828 5828 5828 5827 5827 5827 5826 5826 5826 5826 5826 5826 5825 5825 5825 5825 5826
5799 5801 5803 5805 5807 5810 5812 5815 5817 5818 5819 5820 5821 5823 5824 5824 5825 5825 5825 5825 5825 5825 5824 5824 5824 5823 5823 5822 5822 5821 5821 5821 5820 5820 5820 5819 5818 5818 5818 5818 5818 5817 5817 5818
5796 5799 5801 5803 5806 5808 5811 5813 5814 5816 5817 5817 5818 5819 5820 5820 5821 5821 5820 5820 5820 5819 5819 5818 5818 5817 5817 5817 5816 5815 5814 5814 5813 5813 5812 5812 5811 5811 5811 5811 5810 5810 5810 5811
5794 5797 5799 5802 5804 5807 5809 5811 5812 5813 5814 5814 5816 5816 5817 5816 5816 5816 5816 5816 5815 5814 5814 5813 5812 5812 5811 5810 5810 5809 5808 5807 5806 5805 5805 5804 5803 5803 5803 5802 5802 5802 5803 5804
5793 5795 5798 5801 5803 5805 5807 5808 5809 5810 5811 5812 5812 5813 5814 5813 5813 5813 5812 5811 5811 5810 5809 5807 5806 5806 5805 5804 5803 5802 5801 5800 5799 5798 5798 5797 5796 5796 5795 5794 5794 5795 5795 5795
5791 5794 5797 5799 5801 5803 5805 5806 5807 5808 5809 5810 5810 5810 5810 5810 5809 5809 5808 5807 5806 5805 5804 5803 5801 5800 5799 5798 5797 5795 5794 5793 5792 5791 5790 5789 5789 5788 5787 5786 5786 5786 5786 5787
5790 5793 5795 5798 5800 5802 5803 5805 5805 5806 5806 5807 5807 5807 5808 5807 5806 5805 5804 5803 5802 5801 5800 5798 5796 5795 5793 5791 5790 5789 5787 5786 5785 5784 5783 5782 5781 5780 5779 5779 5778 5778 5778 5779
5788 5792 5794 5796 5798 5800 5801 5803 5804 5804 5804 5804 5804 5804 5805 5803 5802 5801 5800 5799 5798 5796 5795 5793 5791 5789 5787 5786 5784 5782 5780 5779 5778 5776 5775 5774 5774 5773 5772 5771 5770 5770 5770 5770
5787 5791 5793 5794 5796 5798 5799 5800 5801 5801 5801 5801 5801 5802 5801 5800 5799 5798 5796 5795 5793 5792 5790 5788 5786 5784 5782 5780 5778 5775 5774 5772 5771 5769 5768 5767 5766 5765 5764 5763 5762 5762 5762 5762
5786 5789 5790 5792 5794 5795 5797 5797 5798 5798 5798 5798 5798 5798 5798 5797 5795 5794 5792 5791 5789 5787 5785 5782 5780 5778 5776 5774 5771 5769 5767 5765 5763 5762 5760 5759 5758 5757 5756 5755 5755 5754 5754 5754
5784 5787 5789 5790 5791 5793 5794 5795 5795 5795 5795 5795 5795 5797 5795 5793 5792 5790 5788 5786 5784 5782 5779 5777 5774 5772 5769 5767 5764 5762 5760 5758 5756 5755 5753 5752 5750 5749 5748 5747 5747 5747 5746 5746
5782 5785 5786 5788 5789 5790 5791 5792 5792 5793 5793 5792 5792 5795 5791 5789 5787 5785 5783 5780 5778 5776 5773 5771 5768 5765 5763 5760 5758 5755 5753 5751 5749 5747 5745 5744 5742 5741 5740 5739 5739 5739 5738 5738
5780 5783 5784 5786 5789 5789 5789 5789 5789 5790 5790 5789 5788 5791 5787 5784 5782 5780 5777 5775 5772 5770 5767 5764 5761 5758 5755 5753 5750 5748 5746 5743 5741 5740 5738 5736 5735 5733 5733 5732 5731 5731 5731 5730
5778 5780 5782 5784 5785 5785 5786 5787 5787 5787 5786 5785 5785 5784 5783 5780 5777 5775 5772 5769 5766 5763 5760 5757 5754 5751 5748 5745 5742 5740 5738 5735 5733 5732 5730 5728 5727 5726 5725 5724 5724 5723 5723 5723
5775 5777 5778 5780 5782 5783 5783 5784 5784 5783 5783 5782 5781 5779 5778 5775 5772 5769 5766 5763 5760 5757 5753 5750 5746 5743 5740 5737 5734 5732 5729 5727 5725 5724 5722 5721 5719 5719 5718 5717 5716 5716 5716 5716
5772 5774 5776 5778 5779 5780 5780 5781 5780 5780 5779 5778 5776 5775 5772 5769 5766 5763 5760 5757 5753 5750 5746 5742 5739 5735 5732 5729 5726 5724 5722 5720 5718 5716 5715 5713 5712 5712 5711 5710 5710 5710 5709 5709
5770 5772 5774 5775 5776 5777 5778 5778 5777 5777 5775 5774 5772 5771 5767 5764 5761 5758 5754 5751 5747 5743 5739 5735 5731 5728 5725 5722 5719 5717 5715 5713 5711 5709 5708 5707 5706 5706 5705 5705 5704 5704 5703 5704
5768 5769 5771 5772 5774 5774 5778 5775 5774 5773 5772 5770 5768 5765 5762 5759 5756 5752 5748 5744 5740 5736 5732 5728 5725 5722 5718 5715 5713 5711 5709 5707 5705 5703 5702 5701 5700 5700 5700 5699 5699 5699 5699 5699
5765 5767 5768 5769 5770 5772 5773 5772 5771 5770 5769 5767 5764 5761 5758 5754 5750 5746 5742 5738 5734 5730 5726 5723 5719 5716 5713 5710 5708 5706 5704 5702 5701 5699 5698 5697 5696 5695 5695 5695 5695 5695 5695 5694
5762 5764 5766 5767 5768 5769 5771 5769 5768 5768 5766 5763 5760 5757 5753 5749 5746 5742 5737 5732 5728 5724 5721 5717 5714 5711 5709 5706 5704 5702 5700 5699 5697 5696 5694 5693 5692 5692 5691 5691 5691 5691 5691 5691
5760 5762 5764 5765 5765 5766 5767 5766 5765 5765 5763 5759 5756 5752 5749 5745 5741 5737 5732 5727 5723 5719 5716 5713 5710 5707 5705 5703 5701 5699 5697 5696 5694 5693 5692 5690 5690 5689 5688 5688 5688 5688 5688 5688
5758 5760 5761 5762 5763 5766 5763 5763 5762 5761 5758 5755 5751 5748 5744 5740 5736 5732 5727 5722 5719 5715 5712 5709 5706 5704 5702 5700 5698 5697 5695 5693 5692 5691 5690 5689 5688 5687 5686 5686 5686 5686 5686 5686
5756 5759 5759 5761 5763 5762 5760 5760 5759 5757 5755 5751 5748 5744 5740 5736 5731 5727 5723 5719 5715 5712 5709 5706 5704 5702 5700 5698 5697 5695 5694 5692 5691 5690 5689 5688 5687 5686 5685 5685 5684 5684 5684 5684
5754 5756 5757 5758 5759 5758 5758 5757 5755 5754 5751 5748 5744 5741 5736 5732 5728 5724 5720 5716 5713 5710 5707 5704 5702 5700 5698 5697 5695 5694 5693 5692 5691 5689 5688 5687 5686 5685 5685 5684 5684 5684 5684 5684
5753 5754 5755 5756 5756 5756 5755 5754 5753 5751 5748 5745 5741 5737 5733 5729 5725 5721 5718 5714 5712 5709 5706 5703 5701 5700 5698 5697 5696 5695 5693 5692 5691 5690 5689 5688 5687 5686 5685 5685 5685 5684 5684 5684
5751 5752 5753 5754 5754 5754 5753 5752 5751 5748 5746 5742 5739 5735 5730 5727 5723 5720 5716 5714 5711 5708 5706 5703 5701 5700 5699 5698 5696 5695 5694 5693 5692 5691 5690 5689 5688 5688 5687 5687 5686 5686 5685 5685